QPF
0.01 0.01 0.01 0.02 0.02 0.03 0.02 0.03 0.02 0.02 0.02 0.03 0.04 0.04 0.03 0.02 0.02 0.02 0.03 0.03 0.04 0.04 0.05 0.06 0.08 0.09 0.08 0.08 0.08 0.08 0.08 0.09 0.08 0.08 0.08 0.08 0.07 0.06 0.05 0.05 0.04 0.04 0.04 0.04
0.01 0.01 0.01 0.01 0.02 0.03 0.02 0.02 0.02 0.02 0.03 0.04 0.03 0.03 0.04 0.04 0.03 0.03 0.03 0.03 0.04 0.05 0.05 0.06 0.07 0.09 0.08 0.07 0.08 0.08 0.08 0.08 0.08 0.07 0.06 0.05 0.05 0.05 0.05 0.04 0.03 0.03 0.04 0.04
0.02 0.01 0.01 0.02 0.02 0.03 0.02 0.02 0.02 0.03 0.04 0.04 0.03 0.03 0.04 0.04 0.04 0.04 0.04 0.03 0.03 0.04 0.05 0.06 0.07 0.08 0.08 0.06 0.06 0.07 0.06 0.05 0.06 0.08 0.05 0.04 0.04 0.03 0.03 0.03 0.02 0.02 0.03 0.03
0.02 0.02 0.02 0.02 0.02 0.02 0.02 0.02 0.02 0.02 0.03 0.04 0.04 0.03 0.04 0.04 0.05 0.05 0.05 0.04 0.04 0.04 0.04 0.05 0.06 0.08 0.08 0.07 0.06 0.06 0.06 0.04 0.04 0.06 0.05 0.04 0.03 0.02 0.02 0.02 0.02 0.02 0.02 0.03
0.02 0.02 0.01 0.01 0.01 0.01 0.02 0.01 0.02 0.02 0.02 0.02 0.02 0.02 0.04 0.05 0.04 0.04 0.05 0.04 0.04 0.04 0.04 0.05 0.05 0.07 0.07 0.08 0.07 0.06 0.06 0.05 0.04 0.04 0.04 0.03 0.03 0.02 0.02 0.01 0.01 0.01 0.02 0.03
0.01 0.01 0.01 0.01 0.00 0.01 0.01 0.01 0.01 0.01 0.01 0.01 0.01 0.02 0.03 0.04 0.03 0.04 0.04 0.04 0.04 0.05 0.05 0.05 0.05 0.06 0.07 0.07 0.06 0.05 0.05 0.04 0.04 0.04 0.04 0.03 0.03 0.03 0.02 0.01 0.02 0.02 0.02 0.02
0.01 0.01 0.01 0.01 0.00 0.00 0.01 0.01 0.01 0.01 0.02 0.02 0.01 0.02 0.02 0.03 0.03 0.04 0.05 0.04 0.04 0.05 0.06 0.05 0.06 0.07 0.08 0.08 0.06 0.05 0.04 0.04 0.04 0.05 0.05 0.04 0.03 0.04 0.03 0.02 0.02 0.02 0.02 0.02
0.01 0.01 0.00 0.00 0.00 0.01 0.01 0.01 0.01 0.01 0.01 0.01 0.01 0.01 0.01 0.02 0.02 0.03 0.04 0.05 0.05 0.06 0.06 0.06 0.06 0.07 0.08 0.09 0.06 0.05 0.04 0.04 0.04 0.05 0.05 0.04 0.04 0.04 0.03 0.02 0.02 0.02 0.02 0.02
0.01 0.01 0.00 0.01 0.01 0.01 0.01 0.01 0.00 0.01 0.01 0.01 0.01 0.01 0.01 0.01 0.02 0.02 0.03 0.04 0.05 0.06 0.06 0.06 0.06 0.07 0.08 0.09 0.06 0.04 0.04 0.03 0.03 0.04 0.05 0.04 0.03 0.03 0.03 0.03 0.02 0.02 0.02 0.02
0.01 0.00 0.00 0.00 0.00 0.00 0.00 0.00 0.00 0.00 0.00 0.00 0.00 0.00 0.00 0.01 0.01 0.02 0.02 0.03 0.04 0.05 0.06 0.06 0.06 0.07 0.08 0.09 0.06 0.04 0.03 0.02 0.02 0.03 0.04 0.04 0.04 0.03 0.02 0.02 0.02 0.02 0.02 0.02
0.01 0.01 0.00 0.00 0.00 0.00 0.00 0.00 0.00 0.00 0.00 0.00 0.00 0.00 0.00 0.01 0.01 0.01 0.01 0.02 0.03 0.04 0.05 0.06 0.07 0.07 0.08 0.08 0.07 0.04 0.02 0.02 0.02 0.02 0.03 0.04 0.04 0.03 0.02 0.02 0.02 0.02 0.02 0.02
0.02 0.01 0.01 0.00 0.00 0.00 0.00 0.00 0.00 0.00 0.00 0.00 0.00 0.00 0.00 0.01 0.01 0.01 0.01 0.01 0.02 0.03 0.04 0.05 0.06 0.07 0.08 0.09 0.07 0.05 0.03 0.02 0.02 0.03 0.04 0.04 0.05 0.04 0.03 0.03 0.03 0.02 0.02 0.02
0.01 0.01 0.01 0.00 0.00 0.00 0.00 0.00 0.00 0.00 0.00 0.00 0.00 0.00 0.00 0.00 0.01 0.01 0.01 0.01 0.02 0.02 0.03 0.04 0.05 0.06 0.06 0.07 0.07 0.05 0.03 0.03 0.03 0.04 0.04 0.04 0.04 0.03 0.03 0.04 0.03 0.03 0.02 0.02
0.01 0.01 0.01 0.01 0.00 0.00 0.00 0.00 0.00 0.00 0.00 0.00 0.00 0.00 0.00 0.00 0.01 0.01 0.01 0.01 0.01 0.02 0.02 0.03 0.03 0.04 0.05 0.05 0.05 0.05 0.04 0.05 0.05 0.05 0.04 0.05 0.04 0.03 0.03 0.03 0.03 0.02 0.02 0.02
0.01 0.01 0.01 0.01 0.01 0.01 0.00 0.00 0.00 0.00 0.00 0.01 0.01 0.01 0.01 0.01 0.01 0.01 0.01 0.01 0.01 0.01 0.02 0.03 0.03 0.04 0.05 0.04 0.04 0.04 0.05 0.06 0.05 0.05 0.05 0.05 0.05 0.04 0.03 0.03 0.03 0.03 0.03 0.03
0.01 0.02 0.02 0.01 0.01 0.01 0.00 0.00 0.00 0.01 0.01 0.01 0.01 0.01 0.01 0.01 0.01 0.01 0.01 0.01 0.01 0.01 0.02 0.03 0.03 0.04 0.05 0.05 0.04 0.04 0.05 0.05 0.05 0.05 0.05 0.05 0.04 0.04 0.04 0.03 0.03 0.03 0.04 0.04
0.02 0.02 0.01 0.01 0.01 0.01 0.01 0.00 0.01 0.01 0.01 0.01 0.01 0.01 0.01 0.01 0.01 0.01 0.01 0.01 0.01 0.02 0.02 0.03 0.04 0.04 0.05 0.06 0.05 0.04 0.04 0.04 0.04 0.04 0.05 0.05 0.04 0.04 0.04 0.03 0.03 0.03 0.04 0.04
0.01 0.01 0.01 0.01 0.01 0.01 0.01 0.01 0.01 0.01 0.01 0.01 0.01 0.01 0.01 0.01 0.01 0.01 0.01 0.02 0.02 0.02 0.02 0.03 0.04 0.04 0.04 0.05 0.05 0.05 0.05 0.05 0.05 0.05 0.04 0.04 0.04 0.04 0.04 0.04 0.04 0.03 0.03 0.03
0.01 0.01 0.01 0.00 0.00 0.00 0.00 0.01 0.01 0.01 0.01 0.01 0.01 0.02 0.01 0.01 0.01 0.01 0.01 0.01 0.01 0.02 0.02 0.03 0.03 0.03 0.04 0.04 0.04 0.04 0.04 0.04 0.04 0.04 0.04 0.04 0.03 0.03 0.03 0.04 0.03 0.03 0.03 0.03
0.01 0.00 0.00 0.00 0.00 0.00 0.00 0.00 0.01 0.01 0.01 0.01 0.01 0.01 0.01 0.01 0.01 0.01 0.01 0.01 0.01 0.01 0.01 0.02 0.02 0.03 0.03 0.03 0.03 0.03 0.04 0.03 0.04 0.04 0.04 0.03 0.03 0.03 0.03 0.03 0.03 0.03 0.03 0.03
0.00 0.00 0.00 0.00 0.00 0.00 0.00 0.00 0.01 0.01 0.01 0.01 0.01 0.01 0.01 0.01 0.01 0.01 0.01 0.01 0.01 0.01 0.01 0.01 0.02 0.02 0.02 0.02 0.02 0.03 0.03 0.03 0.03 0.03 0.03 0.03 0.02 0.02 0.03 0.03 0.03 0.03 0.03 0.02
0.00 0.00 0.00 0.00 0.00 0.00 0.00 0.01 0.00 0.00 0.01 0.01 0.01 0.01 0.00 0.00 0.01 0.01 0.01 0.01 0.01 0.01 0.01 0.01 0.01 0.02 0.02 0.02 0.02 0.02 0.03 0.03 0.03 0.03 0.02 0.02 0.02 0.02 0.02 0.02 0.02 0.02 0.02 0.02
0.00 0.00 0.00 0.00 0.00 0.00 0.00 0.01 0.00 0.00 0.00 0.00 0.00 0.00 0.00 0.00 0.01 0.01 0.01 0.01 0.01 0.01 0.01 0.01 0.01 0.01 0.02 0.02 0.02 0.02 0.02 0.02 0.02 0.02 0.02 0.02 0.02 0.02 0.02 0.02 0.02 0.02 0.02 0.02
0.00 0.00 0.00 0.00 0.00 0.00 0.00 0.00 0.00 0.00 0.00 0.00 0.00 0.00 0.01 0.01 0.01 0.01 0.01 0.01 0.01 0.01 0.01 0.01 0.01 0.01 0.01 0.01 0.01 0.02 0.02 0.02 0.02 0.02 0.02 0.02 0.01 0.01 0.01 0.01 0.02 0.02 0.02 0.02
0.01 0.01 0.01 0.00 0.01 0.01 0.00 0.00 0.00 0.00 0.00 0.00 0.00 0.01 0.01 0.01 0.01 0.01 0.01 0.01 0.01 0.01 0.01 0.01 0.01 0.01 0.01 0.01 0.01 0.01 0.02 0.02 0.02 0.01 0.01 0.02 0.01 0.01 0.01 0.02 0.02 0.02 0.02 0.02
0.00 0.01 0.01 0.01 0.00 0.00 0.00 0.00 0.00 0.00 0.00 0.00 0.00 0.00 0.01 0.01 0.01 0.01 0.01 0.01 0.01 0.01 0.01 0.01 0.01 0.01 0.01 0.01 0.01 0.01 0.01 0.02 0.02 0.01 0.01 0.01 0.02 0.02 0.02 0.02 0.02 0.02 0.02 0.02
0.00 0.00 0.00 0.00 0.00 0.00 0.00 0.00 0.00 0.00 0.00 0.00 0.00 0.00 0.00 0.01 0.01 0.01 0.01 0.01 0.01 0.01 0.01 0.01 0.01 0.01 0.01 0.01 0.01 0.01 0.01 0.01 0.01 0.01 0.01 0.01 0.02 0.02 0.02 0.01 0.01 0.01 0.01 0.01
MSLP
1019.98 1020.12 1020.12 1019.97 1019.63 1019.10 1018.39 1017.51 1016.51 1015.43 1014.32 1013.22 1012.18 1011.22 1010.35 1009.58 1008.87 1008.20 1007.56 1006.90 1006.20 1005.46 1004.64 1003.75 1002.80 1001.78 1000.73 999.67 998.66 997.72 996.93 996.35 996.01 995.96 996.22 996.79 997.61 998.65 999.83 1001.08 1002.32 1003.51 1004.62 1005.62
1019.68 1019.62 1019.36 1018.92 1018.31 1017.57 1016.74 1015.86 1014.97 1014.10 1013.28 1012.52 1011.81 1011.13 1010.46 1009.79 1009.08 1008.31 1007.49 1006.59 1005.64 1004.64 1003.61 1002.55 1001.48 1000.40 999.35 998.33 997.39 996.56 995.89 995.43 995.21 995.29 995.66 996.33 997.25 998.37 999.63 1000.94 1002.25 1003.49 1004.64 1005.67
1019.23 1018.98 1018.48 1017.79 1016.95 1016.05 1015.14 1014.29 1013.53 1012.88 1012.35 1011.89 1011.48 1011.06 1010.57 1009.97 1009.24 1008.36 1007.35 1006.21 1005.00 1003.74 1002.47 1001.23 1000.04 998.91 997.86 996.91 996.07 995.37 994.85 994.54 994.48 994.69 995.19 995.96 996.97 998.17 999.48 1000.84 1002.19 1003.48 1004.66 1005.74
1018.48 1018.07 1017.40 1016.53 1015.56 1014.56 1013.64 1012.86 1012.25 1011.82 1011.54 1011.36 1011.20 1010.98 1010.63 1010.09 1009.32 1008.33 1007.13 1005.76 1004.30 1002.80 1001.32 999.91 998.60 997.42 996.39 995.50 994.78 994.23 993.88 993.74 993.85 994.21 994.83 995.71 996.79 998.04 999.40 1000.79 1002.17 1003.49 1004.72 1005.85
1017.29 1016.79 1016.03 1015.09 1014.07 1013.09 1012.24 1011.57 1011.13 1010.91 1010.86 1010.91 1010.95 1010.89 1010.63 1010.11 1009.31 1008.21 1006.85 1005.30 1003.63 1001.93 1000.27 998.72 997.32 996.10 995.08 994.27 993.66 993.25 993.06 993.10 993.37 993.87 994.62 995.58 996.73 998.02 999.40 1000.81 1002.21 1003.55 1004.82 1006.01
1015.57 1015.06 1014.31 1013.41 1012.47 1011.60 1010.89 1010.40 1010.16 1010.14 1010.29 1010.51 1010.71 1010.76 1010.57 1010.07 1009.23 1008.06 1006.59 1004.91 1003.09 1001.25 999.46 997.81 996.34 995.09 994.09 993.33 992.82 992.54 992.50 992.68 993.09 993.73 994.58 995.62 996.82 998.14 999.53 1000.94 1002.34 1003.70 1005.00 1006.24
1013.33 1012.89 1012.25 1011.50 1010.74 1010.07 1009.58 1009.32 1009.29 1009.47 1009.79 1010.16 1010.47 1010.59 1010.45 1009.97 1009.13 1007.93 1006.42 1004.67 1002.79 1000.87 999.02 997.31 995.80 994.54 993.55 992.83 992.39 992.20 992.27 992.57 993.10 993.84 994.77 995.87 997.10 998.43 999.81 1001.21 1002.60 1003.96 1005.27 1006.55
1010.69 1010.39 1009.94 1009.43 1008.94 1008.56 1008.34 1008.33 1008.52 1008.89 1009.36 1009.84 1010.22 1010.40 1010.30 1009.85 1009.04 1007.86 1006.38 1004.65 1002.78 1000.87 999.01 997.30 995.78 994.52 993.53 992.84 992.44 992.32 992.45 992.84 993.44 994.25 995.24 996.37 997.62 998.93 1000.29 1001.66 1003.02 1004.36 1005.68 1006.97
1007.88 1007.77 1007.58 1007.36 1007.20 1007.13 1007.21 1007.46 1007.87 1008.39 1008.98 1009.53 1009.97 1010.19 1010.13 1009.73 1008.98 1007.88 1006.49 1004.86 1003.08 1001.25 999.46 997.79 996.30 995.05 994.08 993.40 993.01 992.91 993.09 993.51 994.16 995.01 996.03 997.17 998.40 999.69 1001.01 1002.33 1003.64 1004.94 1006.23 1007.52
1005.17 1005.28 1005.37 1005.48 1005.64 1005.91 1006.28 1006.76 1007.35 1008.00 1008.66 1009.25 1009.71 1009.96 1009.93 1009.60 1008.95 1007.99 1006.74 1005.27 1003.65 1001.97 1000.30 998.72 997.30 996.09 995.13 994.45 994.07 993.97 994.15 994.59 995.26 996.12 997.14 998.27 999.48 1000.73 1001.99 1003.25 1004.49 1005.74 1006.98 1008.23
1002.82 1003.15 1003.53 1003.95 1004.43 1004.98 1005.60 1006.28 1007.00 1007.73 1008.41 1009.01 1009.46 1009.71 1009.73 1009.47 1008.94 1008.13 1007.08 1005.82 1004.41 1002.92 1001.42 999.97 998.65 997.50 996.57 995.91 995.53 995.43 995.61 996.04 996.71 997.56 998.56 999.67 1000.83 1002.03 1003.22 1004.41 1005.58 1006.75 1007.93 1009.13
1001.02 1001.57 1002.20 1002.90 1003.65 1004.44 1005.24 1006.06 1006.85 1007.59 1008.26 1008.82 1009.24 1009.48 1009.52 1009.34 1008.93 1008.30 1007.46 1006.43 1005.26 1003.99 1002.69 1001.41 1000.21 999.15 998.28 997.65 997.28 997.18 997.35 997.78 998.43 999.26 1000.24 1001.31 1002.43 1003.57 1004.69 1005.80 1006.90 1007.99 1009.09 1010.23
999.83 1000.58 1001.43 1002.34 1003.30 1004.26 1005.19 1006.07 1006.88 1007.60 1008.21 1008.70 1009.06 1009.27 1009.33 1009.21 1008.93 1008.46 1007.83 1007.04 1006.11 1005.08 1003.99 1002.89 1001.84 1000.90 1000.10 999.52 999.18 999.09 999.27 999.69 1000.33 1001.14 1002.09 1003.13 1004.20 1005.28 1006.34 1007.38 1008.39 1009.41 1010.44 1011.51
999.21 1000.12 1001.14 1002.22 1003.32 1004.39 1005.38 1006.28 1007.07 1007.73 1008.26 1008.67 1008.96 1009.13 1009.19 1009.13 1008.95 1008.64 1008.20 1007.62 1006.92 1006.12 1005.24 1004.33 1003.44 1002.62 1001.93 1001.41 1001.12 1001.06 1001.25 1001.67 1002.31 1003.11 1004.04 1005.04 1006.07 1007.09 1008.10 1009.07 1010.02 1010.97 1011.93 1012.93
999.03 1000.07 1001.22 1002.42 1003.61 1004.73 1005.75 1006.64 1007.37 1007.96 1008.41 1008.74 1008.97 1009.10 1009.16 1009.15 1009.05 1008.87 1008.59 1008.20 1007.70 1007.09 1006.41 1005.68 1004.95 1004.26 1003.68 1003.25 1003.02 1003.00 1003.22 1003.66 1004.29 1005.08 1005.99 1006.96 1007.95 1008.93 1009.89 1010.81 1011.71 1012.60 1013.51 1014.46
999.16 1000.30 1001.53 1002.80 1004.04 1005.18 1006.20 1007.05 1007.74 1008.27 1008.65 1008.92 1009.09 1009.21 1009.27 1009.29 1009.27 1009.19 1009.04 1008.80 1008.46 1008.02 1007.51 1006.94 1006.35 1005.80 1005.32 1004.99 1004.83 1004.87 1005.13 1005.58 1006.22 1007.00 1007.89 1008.83 1009.79 1010.74 1011.65 1012.53 1013.39 1014.25 1015.11 1016.01
999.47 1000.67 1001.95 1003.25 1004.50 1005.65 1006.64 1007.47 1008.12 1008.61 1008.95 1009.19 1009.35 1009.46 1009.54 1009.59 1009.63 1009.63 1009.57 1009.45 1009.23 1008.93 1008.55 1008.12 1007.66 1007.23 1006.86 1006.63 1006.54 1006.64 1006.93 1007.41 1008.05 1008.83 1009.69 1010.61 1011.53 1012.45 1013.33 1014.18 1015.01 1015.84 1016.67 1017.53
999.90 1001.12 1002.41 1003.70 1004.94 1006.07 1007.05 1007.85 1008.49 1008.96 1009.30 1009.54 1009.70 1009.83 1009.94 1010.04 1010.13 1010.19 1010.20 1010.16 1010.04 1009.84 1009.56 1009.24 1008.89 1008.57 1008.31 1008.16 1008.15 1008.30 1008.63 1009.13 1009.77 1010.53 1011.37 1012.26 1013.15 1014.03 1014.89 1015.71 1016.52 1017.31 1018.12 1018.94
1000.46 1001.65 1002.90 1004.16 1005.36 1006.45 1007.40 1008.19 1008.82 1009.30 1009.66 1009.92 1010.13 1010.30 1010.45 1010.59 1010.72 1010.83 1010.90 1010.91 1010.85 1010.73 1010.54 1010.30 1010.05 1009.83 1009.66 1009.59 1009.65 1009.86 1010.22 1010.73 1011.37 1012.11 1012.92 1013.77 1014.62 1015.47 1016.29 1017.09 1017.87 1018.64 1019.41 1020.20
1001.17 1002.30 1003.49 1004.67 1005.80 1006.83 1007.73 1008.50 1009.12 1009.62 1010.01 1010.32 1010.57 1010.79 1010.99 1011.18 1011.35 1011.49 1011.60 1011.65 1011.64 1011.57 1011.45 1011.30 1011.13 1010.99 1010.91 1010.93 1011.05 1011.31 1011.70 1012.22 1012.85 1013.57 1014.34 1015.15 1015.96 1016.76 1017.55 1018.31 1019.06 1019.80 1020.54 1021.28
1002.11 1003.14 1004.21 1005.29 1006.31 1007.26 1008.10 1008.83 1009.44 1009.94 1010.36 1010.70 1011.00 1011.27 1011.51 1011.73 1011.93 1012.11 1012.24 1012.32 1012.36 1012.34 1012.28 1012.20 1012.12 1012.07 1012.07 1012.16 1012.36 1012.66 1013.08 1013.61 1014.23 1014.91 1015.65 1016.40 1017.17 1017.92 1018.66 1019.38 1020.09 1020.80 1021.50 1022.20
1003.28 1004.19 1005.13 1006.07 1006.97 1007.80 1008.56 1009.22 1009.80 1010.29 1010.71 1011.08 1011.41 1011.70 1011.97 1012.22 1012.45 1012.64 1012.79 1012.91 1012.97 1013.01 1013.01 1013.00 1013.00 1013.04 1013.13 1013.30 1013.56 1013.92 1014.36 1014.90 1015.50 1016.16 1016.85 1017.55 1018.26 1018.96 1019.65 1020.33 1020.99 1021.65 1022.31 1022.95
1004.66 1005.43 1006.23 1007.02 1007.78 1008.49 1009.14 1009.73 1010.24 1010.70 1011.11 1011.47 1011.81 1012.11 1012.40 1012.65 1012.89 1013.09 1013.26 1013.40 1013.50 1013.58 1013.65 1013.72 1013.81 1013.93 1014.11 1014.36 1014.68 1015.09 1015.56 1016.10 1016.69 1017.32 1017.97 1018.62 1019.27 1019.91 1020.54 1021.16 1021.78 1022.39 1022.99 1023.59
1006.16 1006.82 1007.48 1008.13 1008.75 1009.34 1009.87 1010.37 1010.81 1011.22 1011.58 1011.93 1012.24 1012.53 1012.81 1013.06 1013.30 1013.51 1013.69 1013.85 1013.99 1014.12 1014.25 1014.39 1014.56 1014.77 1015.03 1015.36 1015.74 1016.19 1016.69 1017.24 1017.81 1018.41 1019.01 1019.61 1020.20 1020.79 1021.36 1021.92 1022.48 1023.04 1023.60 1024.14
1007.67 1008.23 1008.78 1009.32 1009.82 1010.29 1010.73 1011.13 1011.50 1011.84 1012.16 1012.47 1012.75 1013.02 1013.28 1013.52 1013.74 1013.95 1014.14 1014.32 1014.50 1014.67 1014.86 1015.07 1015.32 1015.60 1015.94 1016.33 1016.77 1017.25 1017.77 1018.31 1018.87 1019.43 1019.99 1020.54 1021.08 1021.60 1022.11 1022.62 1023.13 1023.63 1024.13 1024.63
1009.05 1009.56 1010.04 1010.49 1010.91 1011.30 1011.66 1011.99 1012.29 1012.58 1012.85 1013.11 1013.36 1013.61 1013.84 1014.06 1014.27 1014.48 1014.68 1014.88 1015.09 1015.30 1015.54 1015.81 1016.12 1016.47 1016.86 1017.30 1017.77 1018.27 1018.80 1019.33 1019.87 1020.40 1020.91 1021.41 1021.88 1022.35 1022.80 1023.26 1023.70 1024.16 1024.60 1025.05
1010.20 1010.69 1011.14 1011.55 1011.93 1012.27 1012.58 1012.87 1013.13 1013.38 1013.62 1013.85 1014.08 1014.29 1014.51 1014.72 1014.93 1015.13 1015.34 1015.56 1015.79 1016.04 1016.32 1016.63 1016.98 1017.37 1017.80 1018.26 1018.75 1019.25 1019.77 1020.28 1020.79 1021.27 1021.74 1022.18 1022.60 1023.01 1023.41 1023.81 1024.20 1024.60 1025.00 1025.39
Thickness
5443 5450 5451 5452 5455 5454 5454 5457 5460 5470 5470 5482 5481 5481 5483 5483 5483 5484 5484 5485 5485 5485 5485 5485 5487 5488 5489 5491 5493 5495 5496 5497 5499 5499 5500 5500 5500 5499 5499 5499 5498 5497 5497 5497
5438 5444 5445 5446 5451 5452 5452 5453 5455 5460 5465 5475 5473 5472 5472 5474 5475 5474 5474 5475 5475 5476 5477 5477 5477 5478 5480 5481 5483 5484 5486 5487 5489 5489 5489 5489 5489 5488 5489 5488 5487 5486 5486 5487
5429 5432 5438 5439 5446 5447 5448 5448 5449 5455 5464 5464 5464 5466 5466 5465 5464 5464 5465 5466 5466 5466 5466 5467 5467 5469 5470 5471 5472 5473 5474 5476 5478 5479 5478 5478 5477 5477 5478 5477 5476 5476 5475 5476
5411 5419 5427 5452 5443 5443 5445 5446 5444 5449 5450 5454 5456 5457 5457 5457 5456 5457 5457 5456 5456 5456 5456 5457 5457 5459 5460 5460 5461 5462 5464 5466 5467 5467 5467 5466 5466 5466 5466 5466 5465 5465 5465 5465
5397 5403 5419 5436 5437 5432 5433 5440 5441 5441 5445 5446 5446 5447 5448 5450 5449 5449 5448 5448 5447 5447 5447 5448 5448 5449 5449 5450 5451 5452 5454 5455 5455 5455 5455 5456 5456 5455 5455 5455 5455 5454 5455 5454
5389 5401 5418 5441 5433 5428 5430 5434 5439 5435 5436 5436 5438 5436 5443 5443 5441 5440 5439 5439 5439 5438 5438 5438 5439 5439 5439 5440 5441 5442 5443 5444 5444 5444 5445 5446 5446 5445 5444 5444 5444 5444 5444 5444
5384 5388 5408 5421 5420 5424 5426 5437 5434 5429 5428 5427 5427 5430 5432 5432 5431 5430 5430 5430 5430 5429 5428 5429 5429 5429 5429 5430 5431 5432 5432 5433 5433 5433 5434 5435 5435 5434 5434 5434 5433 5433 5433 5433
5377 5383 5409 5417 5412 5416 5424 5424 5423 5421 5420 5419 5418 5419 5420 5421 5421 5420 5420 5420 5420 5419 5418 5419 5419 5420 5419 5420 5421 5421 5421 5422 5422 5423 5423 5424 5425 5424 5424 5424 5423 5423 5422 5421
5392 5408 5412 5409 5411 5414 5412 5412 5414 5413 5412 5411 5410 5410 5411 5411 5411 5411 5410 5409 5409 5408 5408 5408 5409 5410 5410 5410 5411 5411 5411 5411 5411 5412 5413 5414 5415 5414 5414 5414 5414 5413 5412 5411
5386 5398 5400 5401 5402 5404 5404 5404 5406 5405 5404 5402 5401 5401 5401 5401 5400 5400 5400 5400 5399 5398 5397 5397 5398 5399 5400 5401 5401 5402 5402 5402 5402 5403 5403 5403 5404 5406 5406 5406 5406 5405 5404 5402
5384 5390 5393 5398 5398 5398 5398 5397 5397 5397 5396 5394 5393 5393 5392 5391 5391 5391 5391 5390 5389 5389 5388 5388 5388 5388 5389 5390 5391 5392 5393 5393 5393 5393 5394 5394 5395 5395 5396 5398 5398 5397 5396 5393
5395 5396 5391 5397 5396 5394 5391 5391 5391 5389 5388 5387 5386 5385 5384 5383 5382 5382 5381 5381 5380 5379 5379 5379 5378 5379 5379 5380 5381 5383 5384 5383 5383 5384 5385 5385 5386 5386 5386 5387 5388 5388 5387 5385
5394 5392 5388 5390 5389 5387 5385 5384 5384 5382 5381 5379 5378 5377 5375 5374 5374 5373 5372 5371 5370 5370 5369 5369 5369 5370 5370 5371 5372 5373 5373 5374 5374 5375 5376 5376 5377 5376 5375 5376 5376 5376 5377 5376
5382 5380 5379 5380 5379 5378 5377 5376 5374 5373 5371 5370 5368 5367 5366 5365 5364 5363 5362 5361 5361 5360 5360 5360 5360 5361 5362 5362 5363 5364 5364 5365 5366 5366 5366 5366 5367 5366 5365 5365 5364 5364 5365 5365
5374 5373 5373 5372 5370 5369 5367 5366 5363 5362 5361 5360 5359 5357 5356 5355 5354 5353 5353 5352 5352 5351 5350 5350 5351 5352 5353 5354 5355 5355 5356 5356 5357 5357 5357 5357 5357 5356 5355 5354 5354 5353 5353 5353
5367 5364 5362 5361 5361 5359 5357 5356 5354 5353 5352 5351 5349 5348 5347 5346 5345 5344 5343 5343 5342 5342 5342 5342 5343 5344 5345 5346 5346 5347 5347 5348 5349 5348 5348 5347 5347 5346 5345 5344 5343 5343 5343 5343
5357 5355 5354 5353 5352 5351 5349 5348 5347 5345 5344 5343 5342 5340 5338 5337 5336 5335 5335 5334 5334 5333 5333 5334 5335 5336 5337 5337 5337 5338 5339 5339 5340 5339 5338 5338 5337 5336 5336 5335 5334 5334 5333 5334
5354 5352 5349 5347 5345 5343 5342 5341 5339 5338 5337 5336 5334 5331 5330 5329 5329 5328 5326 5326 5325 5325 5326 5326 5327 5328 5328 5329 5330 5330 5330 5330 5330 5329 5329 5328 5327 5327 5326 5326 5325 5325 5325 5325
5346 5344 5342 5340 5338 5336 5335 5334 5333 5331 5330 5328 5326 5324 5323 5322 5321 5319 5318 5317 5317 5318 5319 5319 5321 5321 5322 5322 5323 5323 5322 5321 5320 5320 5319 5319 5318 5318 5317 5317 5316 5316 5316 5316
5338 5336 5334 5332 5330 5329 5328 5327 5325 5323 5321 5320 5318 5317 5315 5314 5312 5311 5310 5310 5312 5312 5313 5313 5314 5314 5314 5315 5316 5315 5313 5312 5312 5311 5310 5310 5309 5309 5309 5309 5308 5308 5308 5308
5329 5328 5325 5323 5322 5321 5320 5319 5317 5315 5314 5313 5312 5310 5308 5307 5305 5304 5303 5304 5306 5306 5306 5307 5307 5307 5307 5308 5308 5306 5305 5305 5304 5303 5302 5302 5301 5301 5301 5301 5301 5301 5302 5301
5320 5318 5316 5314 5313 5312 5311 5310 5309 5308 5306 5305 5304 5302 5300 5298 5297 5297 5297 5298 5299 5300 5300 5300 5300 5301 5301 5301 5299 5299 5298 5298 5297 5296 5295 5295 5294 5294 5294 5295 5295 5295 5295 5295
5312 5309 5307 5306 5304 5303 5302 5301 5300 5299 5298 5297 5296 5295 5293 5292 5291 5291 5291 5292 5293 5294 5294 5294 5295 5295 5295 5293 5292 5291 5290 5290 5289 5289 5288 5288 5288 5288 5288 5288 5289 5289 5289 5289
5303 5301 5299 5296 5295 5293 5293 5293 5292 5291 5290 5289 5289 5288 5287 5285 5284 5285 5285 5286 5287 5288 5287 5287 5289 5289 5288 5285 5284 5284 5283 5283 5282 5282 5282 5282 5282 5282 5283 5283 5283 5283 5284 5284
5295 5292 5290 5287 5287 5287 5286 5285 5283 5282 5281 5281 5281 5280 5280 5279 5279 5279 5278 5279 5280 5281 5280 5280 5281 5281 5280 5278 5278 5277 5277 5277 5276 5276 5276 5277 5277 5277 5278 5278 5278 5279 5279 5279
5287 5285 5283 5282 5281 5280 5278 5276 5275 5275 5274 5274 5274 5274 5273 5273 5273 5272 5272 5272 5273 5273 5272 5272 5272 5273 5272 5271 5271 5271 5271 5271 5271 5271 5271 5272 5272 5272 5273 5273 5273 5274 5274 5274
5278 5276 5274 5273 5272 5271 5270 5269 5268 5267 5267 5267 5267 5267 5267 5267 5266 5266 5265 5265 5265 5265 5265 5265 5265 5265 5265 5265 5265 5265 5265 5266 5266 5267 5267 5267 5268 5268 5268 5268 5268 5269 5269 5270